Time,TemperatureF,DewpointF,PressureIn,WindDirection,WindDirectionDegrees,WindSpeedMPH,WindSpeedGustMPH,Humidity,HourlyPrecipIn,Conditions,Clouds,dailyrainin,SoftwareType,DateUTC
2013-04-21 03:03:00,43.0,-99.9,-100.00,NW,305,1.0,3.0,-999,-99.99,,,-99.99,,2013-04-21 10:03:00,
2013-04-21 03:12:00,43.0,-99.9,-100.00,NW,305,1.0,3.0,-999,-99.99,,,-99.99,,2013-04-21 10:12:00,
2013-04-21 05:03:00,42.0,-99.9,-100.00,NW,320,2.0,3.0,-999,-99.99,,,-99.99,,2013-04-21 12:03:00,
2013-04-21 05:12:00,42.0,-99.9,-100.00,NW,320,2.0,3.0,-999,-99.99,,,-99.99,,2013-04-21 12:12:00,
2013-04-21 07:02:00,42.0,-99.9,-100.00,NNW,340,1.0,3.0,-999,-99.99,,,-99.99,,2013-04-21 14:02:00,
2013-04-21 07:12:00,42.0,-99.9,-100.00,NNW,340,1.0,3.0,-999,-99.99,,,-99.99,,2013-04-21 14:12:00,
2013-04-21 09:03:00,43.0,-99.9,-100.00,NNW,335,1.0,2.0,-999,-99.99,,,-99.99,,2013-04-21 16:03:00,
2013-04-21 09:13:00,43.0,-99.9,-100.00,NNW,335,1.0,2.0,-999,-99.99,,,-99.99,,2013-04-21 16:13:00,
2013-04-21 11:02:00,45.0,-99.9,-100.00,NW,325,2.0,6.0,-999,-99.99,,,-99.99,,2013-04-21 18:02:00,
2013-04-21 11:11:00,45.0,-99.9,-100.00,NW,325,2.0,6.0,-999,-99.99,,,-99.99,,2013-04-21 18:11:00,
2013-04-21 13:01:00,46.0,45.0,-100.00,NNW,340,3.0,9.0,96,-99.99,,,-99.99,,2013-04-21 20:01:00,
2013-04-21 13:11:00,46.0,45.0,-100.00,NNW,340,3.0,9.0,96,-99.99,,,-99.99,,2013-04-21 20:11:00,
2013-04-21 15:02:00,47.0,46.0,-100.00,West,280,3.0,9.0,96,-99.99,,,-99.99,,2013-04-21 22:02:00,
2013-04-21 15:12:00,47.0,46.0,-100.00,West,280,3.0,9.0,96,-99.99,,,-99.99,,2013-04-21 22:12:00,
2013-04-21 17:01:00,51.0,42.0,-100.00,NW,315,3.0,9.0,71,-99.99,,,-99.99,,2013-04-22 00:01:00,
2013-04-21 17:11:00,51.0,42.0,-100.00,NW,315,3.0,9.0,71,-99.99,,,-99.99,,2013-04-22 00:11:00,
2013-04-21 19:02:00,48.0,40.0,-100.00,NNW,330,2.0,7.0,73,-99.99,,,-99.99,,2013-04-22 02:02:00,
2013-04-21 19:11:00,48.0,40.0,-100.00,NNW,330,2.0,7.0,73,-99.99,,,-99.99,,2013-04-22 02:11:00,
2013-04-21 21:02:00,45.0,41.0,-100.00,NW,315,2.0,6.0,85,-99.99,,,-99.99,,2013-04-22 04:02:00,
2013-04-21 21:12:00,45.0,41.0,-100.00,NW,315,2.0,6.0,85,-99.99,,,-99.99,,2013-04-22 04:12:00,
2013-04-21 23:02:00,44.0,42.0,-100.00,WSW,250,1.0,5.0,92,-99.99,,,-99.99,,2013-04-22 06:02:00,
2013-04-21 23:12:00,44.0,42.0,-100.00,WSW,250,1.0,5.0,92,-99.99,,,-99.99,,2013-04-22 06:12:00,